Total_Precipitation_Accumulation
0.69 0.40 0.46 0.44 0.39 0.42 0.40 0.44 0.49 0.49 0.45 0.41 0.35 0.31 0.29 0.32 0.35 0.42 0.49 0.49 0.55 0.72 0.83 0.89 0.94 0.92 0.94 0.96 1.06 1.19 1.14 1.10 1.17 1.23 1.37 1.40 1.42 1.52 1.47 1.35 1.30 1.13 1.10
0.53 0.39 0.48 0.44 0.41 0.42 0.43 0.45 0.49 0.52 0.50 0.49 0.43 0.37 0.36 0.36 0.37 0.47 0.54 0.55 0.64 0.73 0.77 0.88 0.93 0.91 0.85 0.84 0.92 1.05 0.98 1.02 1.20 1.37 1.48 1.46 1.59 1.77 1.72 1.56 1.69 1.54 1.15
0.39 0.38 0.47 0.45 0.41 0.46 0.46 0.49 0.52 0.56 0.55 0.52 0.50 0.45 0.43 0.45 0.47 0.50 0.58 0.65 0.74 0.82 0.84 0.91 0.97 0.94 0.86 0.79 0.87 0.96 0.94 1.02 1.34 1.60 1.89 1.90 1.86 1.99 1.82 1.66 1.59 1.43 1.14
0.48 0.57 0.54 0.43 0.42 0.47 0.48 0.53 0.56 0.59 0.63 0.63 0.64 0.56 0.50 0.52 0.56 0.57 0.62 0.68 0.80 0.96 0.97 0.91 0.94 0.95 0.85 0.80 0.91 0.95 0.96 1.10 1.53 1.90 2.23 2.18 2.26 2.41 2.04 1.74 1.64 1.46 1.29
0.56 0.66 0.61 0.49 0.47 0.47 0.54 0.53 0.58 0.63 0.68 0.72 0.75 0.79 0.71 0.57 0.57 0.61 0.70 0.79 0.86 0.99 1.20 1.10 0.98 1.02 0.89 0.86 0.96 0.98 1.02 1.25 1.69 1.93 2.26 2.61 2.98 2.95 2.23 1.85 1.74 1.64 1.49
0.56 0.60 0.59 0.57 0.55 0.54 0.57 0.59 0.66 0.74 0.77 0.77 0.82 0.88 0.93 0.74 0.69 0.70 0.83 0.94 0.96 0.98 1.13 1.34 1.18 1.24 1.16 0.98 0.99 0.98 1.14 1.43 1.55 1.77 2.48 2.89 2.95 2.88 2.33 1.99 1.88 1.96 1.81
0.60 0.63 0.73 0.77 0.81 0.82 0.77 0.77 0.83 0.86 0.89 0.90 0.88 0.89 1.00 0.92 0.84 0.88 0.97 1.05 1.11 1.14 1.21 1.27 1.19 1.34 1.21 1.04 1.03 1.06 1.24 1.46 1.46 1.86 2.48 2.95 2.85 2.74 2.51 2.27 2.13 2.12 2.01
0.72 0.79 0.94 1.09 1.18 1.09 1.02 0.98 0.99 0.96 0.93 0.96 1.07 1.02 1.04 1.09 1.06 1.00 1.06 1.17 1.32 1.38 1.39 1.38 1.32 1.34 1.30 1.21 1.14 1.14 1.25 1.33 1.32 1.73 2.26 2.59 2.55 2.46 2.56 2.38 2.24 2.14 2.07
1.11 1.19 1.18 1.11 1.11 1.14 1.13 1.08 1.12 1.12 1.07 1.07 1.17 1.23 1.14 1.16 1.19 1.21 1.31 1.35 1.37 1.35 1.36 1.45 1.58 1.49 1.34 1.29 1.28 1.26 1.30 1.44 1.53 1.77 2.14 2.53 2.46 2.61 2.75 2.51 2.22 2.18 2.21
1.97 2.20 1.67 1.32 1.17 1.07 1.09 1.20 1.25 1.39 1.35 1.25 1.26 1.36 1.36 1.38 1.41 1.46 1.50 1.51 1.46 1.45 1.41 1.55 1.68 1.71 1.58 1.44 1.37 1.37 1.42 1.40 1.29 1.64 2.23 2.41 2.52 2.86 3.09 2.88 2.53 2.35 2.27
2.57 2.76 2.08 1.65 1.45 1.35 1.36 1.40 1.47 1.63 1.71 1.56 1.45 1.48 1.60 1.72 1.96 1.96 1.75 1.78 1.66 1.68 1.67 1.72 1.79 1.79 1.85 1.83 1.73 1.65 1.57 1.34 1.58 1.82 2.06 2.35 2.74 3.20 3.34 3.17 2.80 2.53 2.44
2.72 2.51 2.26 2.10 1.81 1.66 1.61 1.80 1.89 1.82 1.86 1.71 1.85 1.79 1.93 2.40 2.57 2.26 2.19 2.12 1.98 2.01 2.10 2.12 2.07 2.01 1.89 1.87 2.07 2.08 1.68 1.60 1.82 1.99 2.12 2.31 2.68 3.21 3.42 3.24 2.98 2.83 2.75
3.27 2.77 2.48 2.24 2.16 2.02 2.11 2.30 2.40 2.45 2.46 2.25 2.37 2.35 2.42 2.58 2.53 2.50 2.49 2.35 2.36 2.36 2.56 2.67 2.46 2.15 1.97 1.99 2.10 2.13 2.00 1.97 1.97 2.07 2.20 2.48 2.75 3.22 3.50 3.36 3.10 3.01 2.99
3.43 3.30 2.76 2.58 2.70 2.92 2.93 2.84 2.76 2.74 2.83 2.76 2.76 2.59 2.70 2.79 2.80 2.72 2.72 2.58 2.66 2.61 2.80 2.83 2.77 2.64 2.44 2.23 2.15 2.27 2.38 2.39 2.25 2.30 2.56 2.69 2.72 3.02 3.47 3.51 3.36 3.24 3.24
3.47 3.39 3.07 3.22 3.35 3.43 3.43 3.37 3.10 3.03 3.26 3.28 3.21 3.08 3.05 2.96 2.86 2.87 2.82 2.80 2.67 2.82 2.94 3.00 2.83 2.75 2.68 2.53 2.30 2.29 2.46 2.54 2.70 2.73 2.78 2.83 2.64 2.79 3.29 3.70 3.79 3.80 3.74
3.39 3.62 3.59 3.70 3.60 3.51 3.56 3.71 3.74 3.46 3.58 3.78 3.85 3.69 3.48 3.32 3.24 3.24 3.30 3.23 2.96 2.98 3.10 3.26 3.17 3.05 2.80 2.65 2.50 2.48 2.46 2.44 2.63 2.81 2.85 2.89 2.77 2.72 3.13 3.67 4.03 4.19 4.16
3.60 3.67 3.73 3.63 3.79 3.89 3.90 3.86 3.95 3.87 3.80 3.91 4.08 4.11 3.79 3.50 3.57 3.58 3.70 3.64 3.29 3.23 3.35 3.51 3.54 3.44 3.05 2.75 2.68 2.73 2.72 2.76 2.65 2.64 2.85 2.92 2.82 2.84 3.07 3.28 3.60 3.86 4.04
3.66 3.98 3.93 3.53 3.90 4.09 4.06 4.01 3.81 3.90 4.14 4.29 4.28 4.40 4.11 3.72 3.61 3.78 3.66 3.47 3.41 3.50 3.75 3.97 3.92 3.85 3.64 3.36 3.19 2.89 2.73 2.71 2.64 2.75 2.75 2.80 3.10 3.01 3.00 2.90 3.09 3.41 3.69
3.86 4.33 4.12 3.83 3.99 4.11 4.16 4.22 3.97 4.06 4.38 4.51 4.61 4.61 4.19 3.77 3.71 3.94 3.96 3.91 3.79 3.84 3.95 3.82 4.03 3.93 4.02 3.82 3.34 3.09 2.87 2.72 2.69 2.71 2.78 2.75 2.88 3.03 2.98 2.81 2.89 3.14 3.38
4.12 4.79 4.38 3.97 3.95 4.24 4.25 4.12 4.08 4.21 4.51 4.78 4.83 4.65 4.37 4.21 4.05 4.22 4.15 4.20 4.24 4.31 4.19 4.17 4.26 4.04 3.92 3.83 3.44 3.22 3.00 2.72 2.67 2.62 2.54 2.59 2.67 2.60 2.66 2.64 2.77 2.71 2.97
4.07 4.50 4.49 4.30 4.31 4.36 4.41 4.19 4.33 4.51 4.79 5.06 4.99 4.92 4.83 4.73 4.65 4.73 4.74 4.71 4.54 4.44 4.32 4.23 4.23 4.12 3.86 3.66 3.65 3.32 2.85 2.44 2.26 2.18 2.20 2.28 2.28 2.27 2.37 2.57 2.73 2.66 2.56
3.82 4.06 4.33 4.47 4.50 4.25 4.56 4.86 5.12 5.42 5.41 5.69 5.98 6.04 5.86 5.58 5.38 5.23 5.22 4.92 4.60 4.44 4.29 4.15 4.09 3.93 3.58 3.45 3.48 3.52 3.01 2.53 2.05 1.79 1.89 1.88 1.93 2.11 2.20 2.14 2.25 2.30 2.23
3.62 3.96 4.27 4.59 4.71 4.62 5.04 5.55 6.00 6.31 6.20 6.21 6.24 6.26 6.20 5.78 5.43 5.23 5.02 4.85 4.64 4.45 4.26 4.19 4.11 3.98 3.64 3.44 3.40 3.61 3.38 2.89 2.32 1.99 1.81 1.82 1.93 2.04 2.01 1.96 1.96 1.96 2.00
3.35 3.74 4.05 4.46 4.87 5.15 5.53 5.99 6.52 6.83 7.01 6.84 6.50 6.23 5.88 5.44 5.08 4.70 4.54 4.58 4.47 4.26 4.04 3.73 3.62 3.63 3.54 3.36 3.28 3.14 3.05 2.95 2.73 2.39 2.10 2.07 2.11 2.08 2.00 1.96 2.03 2.11 2.12
3.10 3.44 3.86 4.21 4.59 5.19 5.95 6.53 7.00 7.33 7.33 6.80 6.21 5.62 5.20 4.83 4.49 4.22 4.12 4.22 4.14 3.89 3.70 3.42 3.21 3.07 3.06 3.10 3.10 3.01 2.87 2.77 2.57 2.43 2.24 2.12 2.09 2.01 1.93 1.90 1.97 2.08 2.15
2.85 3.09 3.57 4.10 4.42 4.96 5.72 6.34 6.67 6.85 6.78 6.36 5.72 5.15 4.72 4.29 3.91 3.57 3.35 3.30 3.22 3.04 2.95 2.91 2.84 2.79 2.79 2.83 2.85 2.78 2.69 2.64 2.56 2.53 2.37 2.11 2.06 2.09 2.01 1.88 1.79 1.81 1.86